When you browse on this site, cookies collect data to enhance your experience and personalize the content and advertising you see.
Visit our Privacy Policy to learn more. By continuing to use the site, you agree to this use of cookies and data.
  • In Latvia
  • List of Countries
  • For 7 days
  • Water Temperature
  • Weather Map
  • Weather Widgets
  • user-avatar
    Login

    Hourly Weather Kerchik

    Today, 24 August, Saturday

    Time Temperature Precipitation Wind Pressure Humidity
    00:00 +27°C° 0 mm 4 mps 745 mmHg 48%
    01:00 +27°C° 0 mm 4 mps 745 mmHg 48%
    02:00 +27°C° 0 mm 4 mps 745 mmHg 49%
    03:00 +26°C° 0 mm 5 mps 745 mmHg 53%
    04:00 +25°C° 0 mm 5 mps 745 mmHg 55%
    05:00 +25°C° 0 mm 5 mps 745 mmHg 57%
    06:00 +25°C° 0 mm 5 mps 745 mmHg 59%
    07:00 +26°C° 0 mm 5 mps 746 mmHg 53%
    08:00 +28°C° 0 mm 5 mps 746 mmHg 48%
    09:00 +30°C° 0 mm 5 mps 746 mmHg 42%
    10:00 +32°C° 0 mm 6 mps 746 mmHg 38%
    11:00 +34°C° 0 mm 6 mps 746 mmHg 35%
    12:00 +36°C° 0 mm 6 mps 746 mmHg 31%
    13:00 +36°C° 0 mm 6 mps 746 mmHg 31%
    14:00 +36°C° 0 mm 6 mps 746 mmHg 31%
    15:00 +38°C° 0 mm 6 mps 745 mmHg 30%
    16:00 +36°C° 0 mm 6 mps 745 mmHg 32%
    17:00 +35°C° 0 mm 6 mps 745 mmHg 33%
    18:00 +34°C° 0 mm 5 mps 745 mmHg 35%
    19:00 +33°C° 0 mm 5 mps 746 mmHg 38%
    20:00 +30°C° 0 mm 5 mps 746 mmHg 41%
    21:00 +29°C° 0 mm 5 mps 746 mmHg 45%
    22:00 +27°C° 0.1 mm 4 mps 746 mmHg 49%
    23:00 +26°C° 0.1 mm 3 mps 745 mmHg 53%

    Tomorrow, 25 August, Sunday

    Time Temperature Precipitation Wind Pressure Humidity
    00:00 +25°C° 0.1 mm 2 mps 745 mmHg 57%
    01:00 +25°C° 0 mm 3 mps 745 mmHg 59%
    02:00 +23°C° 0 mm 4 mps 745 mmHg 61%
    03:00 +23°C° 0 mm 5 mps 745 mmHg 63%
    04:00 +23°C° 0 mm 5 mps 745 mmHg 64%
    05:00 +22°C° 0 mm 5 mps 745 mmHg 65%
    06:00 +22°C° 0 mm 4 mps 745 mmHg 66%
    07:00 +23°C° 0 mm 5 mps 746 mmHg 61%
    08:00 +26°C° 0 mm 5 mps 746 mmHg 56%
    09:00 +28°C° 0 mm 6 mps 746 mmHg 50%
    10:00 +29°C° 0 mm 5 mps 746 mmHg 45%
    11:00 +32°C° 0 mm 5 mps 746 mmHg 40%
    12:00 +34°C° 0 mm 5 mps 746 mmHg 35%
    13:00 +34°C° 0 mm 5 mps 746 mmHg 34%
    14:00 +34°C° 0 mm 5 mps 746 mmHg 33%
    15:00 +34°C° 0 mm 5 mps 746 mmHg 33%
    16:00 +33°C° 0 mm 5 mps 746 mmHg 35%
    17:00 +32°C° 0 mm 5 mps 746 mmHg 38%
    18:00 +32°C° 0 mm 6 mps 746 mmHg 40%
    19:00 +29°C° 0 mm 6 mps 747 mmHg 40%
    20:00 +28°C° 0 mm 6 mps 747 mmHg 40%
    21:00 +26°C° 0 mm 6 mps 747 mmHg 40%
    22:00 +24°C° 0 mm 6 mps 747 mmHg 40%
    23:00 +23°C° 0 mm 5 mps 748 mmHg 40%

    Day after tomorrow, 26 August, Monday

    Time Temperature Precipitation Wind Pressure Humidity
    00:00 +22°C° 0 mm 5 mps 748 mmHg 40%
    01:00 +22°C° 0 mm 5 mps 748 mmHg 43%
    02:00 +22°C° 0 mm 5 mps 748 mmHg 46%
    03:00 +21°C° 0 mm 5 mps 748 mmHg 49%
    04:00 +20°C° 0 mm 5 mps 748 mmHg 55%
    05:00 +20°C° 0 mm 5 mps 748 mmHg 61%
    06:00 +19°C° 0 mm 5 mps 748 mmHg 67%
    07:00 +20°C° 0 mm 5 mps 749 mmHg 61%
    08:00 +22°C° 0 mm 6 mps 749 mmHg 56%
    09:00 +23°C° 0 mm 6 mps 750 mmHg 50%
    10:00 +26°C° 0 mm 6 mps 750 mmHg 46%
    11:00 +27°C° 0 mm 6 mps 750 mmHg 41%
    12:00 +28°C° 0 mm 6 mps 749 mmHg 37%
    13:00 +29°C° 0 mm 6 mps 749 mmHg 35%
    14:00 +29°C° 0 mm 6 mps 749 mmHg 34%
    15:00 +30°C° 0 mm 6 mps 749 mmHg 32%
    16:00 +29°C° 0 mm 5 mps 749 mmHg 32%
    17:00 +28°C° 0 mm 5 mps 749 mmHg 32%
    18:00 +28°C° 0 mm 5 mps 748 mmHg 31%
    19:00 +26°C° 0 mm 4 mps 748 mmHg 34%
    20:00 +23°C° 0 mm 4 mps 748 mmHg 36%
    21:00 +21°C° 0 mm 4 mps 749 mmHg 38%
    22:00 +21°C° 0 mm 4 mps 748 mmHg 38%
    23:00 +20°C° 0 mm 4 mps 748 mmHg 39%

    27 August, Tuesday

    Time Temperature Precipitation Wind Pressure Humidity
    00:00 +20°C° 0 mm 4 mps 748 mmHg 40%
    01:00 +19°C° 0 mm 4 mps 748 mmHg 42%
    02:00 +18°C° 0 mm 4 mps 748 mmHg 44%
    03:00 +18°C° 0 mm 3 mps 748 mmHg 46%
    04:00 +17°C° 0 mm 3 mps 747 mmHg 47%
    05:00 +17°C° 0 mm 3 mps 747 mmHg 49%
    06:00 +17°C° 0 mm 3 mps 747 mmHg 50%
    07:00 +19°C° 0 mm 3 mps 747 mmHg 44%
    08:00 +22°C° 0 mm 3 mps 747 mmHg 38%
    09:00 +25°C° 0 mm 4 mps 747 mmHg 33%
    10:00 +26°C° 0 mm 3 mps 747 mmHg 30%
    11:00 +28°C° 0 mm 3 mps 747 mmHg 27%
    12:00 +29°C° 0 mm 3 mps 746 mmHg 25%
    13:00 +29°C° 0 mm 3 mps 746 mmHg 23%
    14:00 +30°C° 0 mm 3 mps 745 mmHg 21%
    15:00 +30°C° 0 mm 3 mps 745 mmHg 20%
    16:00 +30°C° 0 mm 3 mps 745 mmHg 21%
    17:00 +29°C° 0 mm 3 mps 744 mmHg 22%
    18:00 +28°C° 0 mm 3 mps 744 mmHg 23%
    19:00 +26°C° 0 mm 3 mps 744 mmHg 26%
    20:00 +24°C° 0 mm 3 mps 744 mmHg 29%
    21:00 +21°C° 0 mm 3 mps 744 mmHg 32%
    22:00 +21°C° 0 mm 3 mps 744 mmHg 34%
    23:00 +20°C° 0 mm 3 mps 744 mmHg 36%

    28 August, Wednesday

    Time Temperature Precipitation Wind Pressure Humidity
    00:00 +19°C° 0 mm 3 mps 744 mmHg 38%
    01:00 +19°C° 0 mm 3 mps 744 mmHg 41%
    02:00 +18°C° 0 mm 3 mps 743 mmHg 45%
    03:00 +17°C° 0 mm 3 mps 743 mmHg 48%
    04:00 +17°C° 0 mm 3 mps 743 mmHg 52%
    05:00 +17°C° 0 mm 3 mps 743 mmHg 55%
    06:00 +17°C° 0 mm 4 mps 743 mmHg 59%
    07:00 +18°C° 0 mm 4 mps 743 mmHg 58%
    08:00 +20°C° 0 mm 5 mps 744 mmHg 57%
    09:00 +22°C° 0 mm 6 mps 744 mmHg 56%
    10:00 +22°C° 0 mm 6 mps 744 mmHg 49%
    11:00 +23°C° 0 mm 6 mps 744 mmHg 43%
    12:00 +24°C° 0 mm 7 mps 744 mmHg 37%
    13:00 +24°C° 0 mm 7 mps 744 mmHg 32%
    14:00 +24°C° 0 mm 7 mps 744 mmHg 28%
    15:00 +24°C° 0 mm 7 mps 744 mmHg 24%
    16:00 +23°C° 0 mm 7 mps 745 mmHg 24%
    17:00 +22°C° 0 mm 6 mps 745 mmHg 24%
    18:00 +21°C° 0 mm 6 mps 745 mmHg 24%
    19:00 +19°C° 0 mm 5 mps 745 mmHg 28%
    20:00 +16°C° 0 mm 5 mps 746 mmHg 32%
    21:00 +14°C° 0 mm 4 mps 746 mmHg 36%
    22:00 +13°C° 0 mm 4 mps 746 mmHg 39%
    23:00 +12°C° 0 mm 3 mps 747 mmHg 43%

    29 August, Thursday

    Time Temperature Precipitation Wind Pressure Humidity
    00:00 +11°C° 0 mm 3 mps 747 mmHg 46%
    01:00 +10°C° 0 mm 3 mps 747 mmHg 48%
    02:00 +10°C° 0 mm 2 mps 747 mmHg 51%
    03:00 +9°C° 0 mm 2 mps 747 mmHg 53%
    04:00 +9°C° 0 mm 2 mps 747 mmHg 55%
    05:00 +8°C° 0 mm 2 mps 747 mmHg 56%
    06:00 +8°C° 0 mm 2 mps 747 mmHg 57%
    07:00 +10°C° 0 mm 2 mps 747 mmHg 51%
    08:00 +12°C° 0 mm 3 mps 747 mmHg 45%
    09:00 +14°C° 0 mm 3 mps 747 mmHg 39%
    10:00 +16°C° 0 mm 3 mps 747 mmHg 36%
    11:00 +17°C° 0 mm 3 mps 747 mmHg 32%
    12:00 +19°C° 0 mm 4 mps 747 mmHg 29%
    13:00 +19°C° 0 mm 4 mps 746 mmHg 28%
    14:00 +20°C° 0 mm 4 mps 746 mmHg 26%
    15:00 +21°C° 0 mm 4 mps 746 mmHg 25%
    16:00 +20°C° 0 mm 4 mps 746 mmHg 27%
    17:00 +20°C° 0 mm 4 mps 746 mmHg 29%
    18:00 +19°C° 0 mm 4 mps 746 mmHg 30%
    19:00 +17°C° 0 mm 4 mps 746 mmHg 35%
    20:00 +15°C° 0 mm 4 mps 746 mmHg 40%
    21:00 +13°C° 0 mm 4 mps 746 mmHg 45%
    22:00 +12°C° 0 mm 4 mps 746 mmHg 48%
    23:00 +11°C° 0 mm 4 mps 746 mmHg 51%
    Show more